Starlink 11322

operational
NORAD ID: 61542 Int'l Des: 2024-184 Owner: SPXS Country: US Constellation: starlink
LEOCIRCULAR

About Starlink 11322

Description loading...

Live Position

Loading 3D Globe...

Upcoming Passes

Altitude History

Altitude vs Time

uPlot chart will show altitude changes over time

Two-Line Element Set

1 61542U 24184L 25259.61650210 -.00002702 00000-0 -17466-4 0 9992
2 61542 53.1596 14.6391 0001131 130.6143 229.4974 15.69687476 54136
Epoch: Sep 16, 2025 • Age: 33 hours

Current Status

Altitude 367.6 km
Velocity 7.69 km/s
Sub-Earth Point -26.89°S, 144.02°W
Launch Date Oct 15, 2024
Age 0.9 years
Type internet

Technical Details

Classification Payload
Mass 960.00 kg
Dry Mass 910.00 kg
Total Mass 960.00 kg
Length 0.30 m
Diameter 4.10 m
Span 29.00 m
Shape Box + pan
Manufacturer SPXS
Bus Type Starlink V2MD
Phase Status In Orbit
Owner/State SPXS/US

Large Constellations

Loading constellations...